Location: Killam
(52.7910°N, 111.8608°W)
Time: 05:59:43
(UTC+00:00)

METEOR M2 - Pass Details

Date: 19 March 2026
Orbit: 817 x 824 km, 98.5° (Epoch: 14 April)

Event Time Altitude Azimuth Distance (km) Brightness Sun altitude
Rises 11:41:56 0° 17° (NNE) 3,375 ? -17.0°
Reaches altitude 10° 11:44:20 10° 21° (NNE) 2,437 ? -16.7°
Maximum altitude 11:49:41 61° 102° (ESE) 938 ? -16.0°
Drops below altitude 10° 11:54:59 10° 182° (S) 2,419 ? -15.2°
Sets 11:57:21 0° 186° (S) 3,346 ? -14.9°
